Weather History for Jonesville, VA

Change the Weather History Date:

Saturday, October 12, 2013

  Actual Average (KLOZ) Record (KLOZ)
Temperature  
Mean Temperature 62 °F 58 °F  
Max Temperature 75 °F 71 °F 85 °F (2008)
Min Temperature 48 °F 46 °F 30 °F (1964)
Degree Days  
Heating Degree Days 4 7  
Month to date heating degree days 70  
Since 1 July heating degree days 117  
Cooling Degree Days 0 1  
Month to date cooling degree days 14  
Growing Degree Days 12 (Base 50)    
Moisture  
Dew Point 54 °F    
Average Humidity 80    
Maximum Humidity 100    
Minimum Humidity 50    
Precipitation  
Precipitation 0.00 in 0.09 in 0.84 in (1986)
Month to date precipitation 1.14  
Sea Level Pressure  
Sea Level Pressure 30.11 in    
Wind  
Wind Speed 1 mph (NNW)    
Max Wind Speed 8 mph    
Max Gust Speed -    
Visibility 9 miles    
Events Fog    
T = Trace of Precipitation, MM = Missing Value Source: NWS Daily Summary

Daily Weather History Graph

Daily Weather History Graph

Search for Another Location

Airport:

Trip Planner

Search our weather history database for the weather conditions in past years. The results will help you decide how hot, cold, wet, or windy it might be!

Date:

Astronomy

Oct. 12, 2013 Rise Set
Actual Time 7:37 AM EDT 7:00 PM EDT
Civil Twilight 7:11 AM EDT 7:26 PM EDT
Nautical Twilight 6:41 AM EDT 7:56 PM EDT
Astronomical Twilight 6:11 AM EDT 8:25 PM EDT
Moon 2:59 PM EDT (10/12) 12:49 AM EDT (10/12)
Length of Visible Light 12h 14m
Length of Day
11h 22m
First Quarter, 58% of the Moon is Illuminated
Oct 12
First Quarter
Oct 18
Full
Oct 26
Last Quarter
Nov 3
New
Nov 10
First Quarter

Hourly Weather History & Observations

Time (EDT) Temp. Dew Point Humidity Pressure Visibility Wind Dir Wind Speed Gust Speed Precip Events Conditions
12:15 AM 50.0 °F 50.0 °F 100% 30.07 in 10.0 mi Calm Calm - N/A   Unknown
12:35 AM 51.8 °F 51.8 °F 100% 30.07 in 10.0 mi Calm Calm - N/A   Unknown
12:55 AM 53.6 °F 51.8 °F 94% 30.06 in 10.0 mi Calm Calm - N/A   Unknown
1:15 AM 50.0 °F 50.0 °F 100% 30.06 in 10.0 mi Calm Calm - N/A   Unknown
1:35 AM 51.8 °F 51.8 °F 100% 30.06 in 10.0 mi Calm Calm - N/A   Unknown
1:55 AM 50.0 °F 50.0 °F 100% 30.07 in 10.0 mi Calm Calm - N/A   Unknown
2:15 AM 50.0 °F 50.0 °F 100% 30.07 in 10.0 mi Calm Calm - N/A   Unknown
2:35 AM 50.0 °F 50.0 °F 100% 30.07 in 10.0 mi Calm Calm - N/A   Unknown
2:55 AM 50.0 °F 50.0 °F 100% 30.07 in 10.0 mi Calm Calm - N/A   Unknown
3:15 AM 50.0 °F 50.0 °F 100% 30.07 in 10.0 mi Calm Calm - N/A   Unknown
3:35 AM 50.0 °F 50.0 °F 100% 30.07 in 10.0 mi Calm Calm - N/A   Unknown
3:55 AM 50.0 °F 50.0 °F 100% 30.07 in 10.0 mi Calm Calm - N/A   Unknown
4:15 AM 50.0 °F 48.2 °F 94% 30.07 in 10.0 mi Calm Calm - N/A   Unknown
4:35 AM 50.0 °F 50.0 °F 100% 30.08 in 10.0 mi Calm Calm - N/A   Unknown
4:55 AM 48.2 °F 48.2 °F 100% 30.08 in 10.0 mi Calm Calm - N/A   Unknown
5:15 AM 50.0 °F 48.2 °F 94% 30.08 in 10.0 mi Calm Calm - N/A   Unknown
5:35 AM 48.2 °F 48.2 °F 100% 30.08 in 10.0 mi Calm Calm - N/A   Unknown
5:55 AM 48.2 °F 48.2 °F 100% 30.09 in 10.0 mi Calm Calm - N/A   Unknown
6:15 AM 48.2 °F 46.4 °F 93% 30.09 in 10.0 mi Calm Calm - N/A   Unknown
6:35 AM 48.2 °F 48.2 °F 100% 30.10 in 0.2 mi Calm Calm - N/A Fog Fog
7:15 AM 48.2 °F 48.2 °F 100% 30.10 in 0.8 mi Calm Calm - N/A   Mist
7:35 AM 48.2 °F 48.2 °F 100% 30.11 in 0.8 mi Calm Calm - N/A   Mist
7:55 AM 48.2 °F 48.2 °F 100% 30.11 in 0.8 mi Calm Calm - N/A   Mist
8:15 AM 48.2 °F 48.2 °F 100% 30.12 in 0.2 mi Calm Calm - N/A Fog Fog
8:35 AM 48.2 °F 48.2 °F 100% 30.13 in 0.2 mi Calm Calm - N/A Fog Fog
8:55 AM 51.8 °F 51.8 °F 100% 30.13 in 10.0 mi Calm Calm - N/A   Partly Cloudy
9:15 AM 53.6 °F 53.6 °F 100% 30.13 in 10.0 mi Calm Calm - N/A   Clear
9:35 AM 55.4 °F 53.6 °F 94% 30.13 in 10.0 mi Calm Calm - N/A   Clear
9:55 AM 59.0 °F 53.6 °F 82% 30.12 in 10.0 mi Calm Calm - N/A   Clear
10:15 AM 60.8 °F 53.6 °F 77% 30.12 in 10.0 mi Calm Calm - N/A   Clear
10:35 AM 64.4 °F 53.6 °F 68% 30.12 in 10.0 mi Calm Calm - N/A   Clear
10:55 AM 66.2 °F 53.6 °F 64% 30.12 in 10.0 mi Calm Calm - N/A   Clear
11:15 AM 68.0 °F 53.6 °F 60% 30.12 in 10.0 mi Calm Calm - N/A   Clear
11:35 AM 69.8 °F 55.4 °F 60% 30.11 in 10.0 mi Calm Calm - N/A   Clear
11:55 AM 71.6 °F 55.4 °F 57% 30.12 in 10.0 mi Calm Calm - N/A   Clear
12:15 PM 73.4 °F 55.4 °F 53% 30.11 in 10.0 mi NW 3.5 mph - N/A   Clear
12:35 PM 75.2 °F 55.4 °F 50% 30.11 in 10.0 mi NW 6.9 mph - N/A   Clear
12:55 PM 75.2 °F 55.4 °F 50% 30.11 in 10.0 mi North 8.1 mph - N/A   Clear
1:15 PM 75.2 °F 57.2 °F 53% 30.10 in 10.0 mi North 4.6 mph - N/A   Clear
1:35 PM 75.2 °F 57.2 °F 53% 30.10 in 10.0 mi Calm Calm - N/A   Scattered Clouds
1:55 PM 75.2 °F 57.2 °F 53% 30.10 in 10.0 mi NNW 8.1 mph - N/A   Mostly Cloudy
2:15 PM 75.2 °F 57.2 °F 53% 30.10 in 10.0 mi NNW 4.6 mph - N/A   Overcast
2:35 PM 75.2 °F 57.2 °F 53% 30.10 in 10.0 mi WNW 5.8 mph - N/A   Overcast
2:55 PM 75.2 °F 57.2 °F 53% 30.10 in 10.0 mi NNW 5.8 mph - N/A   Mostly Cloudy
3:15 PM 75.2 °F 57.2 °F 53% 30.10 in 10.0 mi NNW 4.6 mph - N/A   Mostly Cloudy
3:35 PM 75.2 °F 57.2 °F 53% 30.10 in 10.0 mi Calm Calm - N/A   Scattered Clouds
3:55 PM 75.2 °F 57.2 °F 53% 30.10 in 10.0 mi Calm Calm - N/A   Scattered Clouds
4:15 PM 75.2 °F 57.2 °F 53% 30.10 in 10.0 mi West 5.8 mph - N/A   Mostly Cloudy
4:35 PM 75.2 °F 57.2 °F 53% 30.10 in 10.0 mi WNW 6.9 mph - N/A   Mostly Cloudy
4:55 PM 75.2 °F 57.2 °F 53% 30.11 in 10.0 mi NW 4.6 mph - N/A   Scattered Clouds
5:15 PM 75.2 °F 57.2 °F 53% 30.11 in 10.0 mi Calm Calm - N/A   Overcast
5:35 PM 73.4 °F 57.2 °F 57% 30.12 in 10.0 mi Calm Calm - N/A   Overcast
5:55 PM 71.6 °F 57.2 °F 60% 30.12 in 10.0 mi Calm Calm - N/A   Overcast
6:15 PM 73.4 °F 57.2 °F 57% 30.12 in 10.0 mi Calm Calm - N/A   Overcast
6:35 PM 71.6 °F 57.2 °F 60% 30.12 in 10.0 mi Calm Calm - N/A   Overcast
6:55 PM 71.6 °F 57.2 °F 60% 30.12 in 10.0 mi Calm Calm - N/A   Unknown
7:15 PM 71.6 °F 57.2 °F 60% 30.12 in 10.0 mi Calm Calm - N/A   Unknown
7:35 PM 68.0 °F 59.0 °F 73% 30.13 in 10.0 mi Calm Calm - N/A   Unknown
7:55 PM 66.2 °F 59.0 °F 78% 30.12 in 10.0 mi Calm Calm - N/A   Unknown
8:15 PM 66.2 °F 59.0 °F 78% 30.12 in 10.0 mi East 3.5 mph - N/A   Unknown
8:35 PM 66.2 °F 59.0 °F 78% 30.12 in 10.0 mi Calm Calm - N/A   Unknown
8:55 PM 62.6 °F 59.0 °F 88% 30.12 in 10.0 mi Calm Calm - N/A   Unknown
9:15 PM 62.6 °F 59.0 °F 88% 30.13 in 10.0 mi Calm Calm - N/A   Unknown
9:35 PM 60.8 °F 59.0 °F 94% 30.14 in 10.0 mi Calm Calm - N/A   Unknown
9:55 PM 60.8 °F 59.0 °F 94% 30.14 in 10.0 mi Calm Calm - N/A   Unknown
10:15 PM 59.0 °F 59.0 °F 100% 30.15 in 10.0 mi Calm Calm - N/A   Unknown
10:35 PM 59.0 °F 57.2 °F 94% 30.16 in 10.0 mi Calm Calm - N/A   Unknown
10:55 PM 59.0 °F 57.2 °F 94% 30.16 in 10.0 mi Calm Calm - N/A   Unknown
11:15 PM 60.8 °F 57.2 °F 88% 30.17 in 10.0 mi Calm Calm - N/A   Unknown
11:35 PM 59.0 °F 57.2 °F 94% 30.17 in 10.0 mi Calm Calm - N/A   Unknown
11:55 PM 59.0 °F 57.2 °F 94% 30.17 in 10.0 mi Calm Calm - N/A   Unknown